�������l�o���
Date,Time,MP-1(��Sv/h),MP-2(��Sv/h),MP-3(��Sv/h),MP-4(��Sv/h),MP-5(��Sv/h),MP-6(��Sv/h),MP-7(��Sv/h),MP-8(��Sv/h),����,����(m/s),���J
2023/11/01,00:00,0.520,0.784,0.490,0.991,0.714,0.316,0.569,0.528,��쐼,3.8,��
2023/11/01,00:10,0.521,0.787,0.489,0.991,0.714,0.317,0.570,0.528,��쐼,5.1,��
2023/11/01,00:20,0.519,0.788,0.490,0.989,0.716,0.318,0.569,0.530,��쐼,3.7,��
2023/11/01,00:30,0.519,0.789,0.490,0.989,0.715,0.315,0.569,0.529,��,4.0,��
2023/11/01,00:40,0.520,0.787,0.491,0.989,0.715,0.318,0.568,0.529,��쐼,4.5,��
2023/11/01,00:50,0.520,0.785,0.489,0.990,0.716,0.317,0.568,0.530,��쐼,4.7,��
2023/11/01,01:00,0.520,0.788,0.490,0.989,0.712,0.316,0.569,0.529,��쐼,3.8,��
2023/11/01,01:10,0.520,0.788,0.489,0.991,0.713,0.317,0.568,0.529,��,3.9,��
2023/11/01,01:20,0.521,0.789,0.489,0.991,0.715,0.316,0.570,0.529,��쐼,4.2,��
2023/11/01,01:30,0.521,0.788,0.489,0.989,0.714,0.316,0.568,0.528,�쐼,4.2,��
2023/11/01,01:40,0.520,0.789,0.490,0.988,0.714,0.316,0.569,0.528,�쐼,2.8,��
2023/11/01,01:50,0.522,0.789,0.490,0.988,0.713,0.316,0.570,0.529,�쐼,2.0,��
2023/11/01,02:00,0.520,0.787,0.489,0.989,0.716,0.317,0.569,0.530,��쐼,1.7,��
2023/11/01,02:10,0.520,0.788,0.489,0.991,0.713,0.317,0.568,0.529,��,1.2,��
2023/11/01,02:20,0.521,0.788,0.491,0.992,0.713,0.317,0.569,0.529,��,0.6,��
2023/11/01,02:30,0.519,0.789,0.489,0.988,0.715,0.316,0.567,0.530,���k��,0.6,��
2023/11/01,02:40,0.520,0.787,0.489,0.989,0.712,0.316,0.568,0.529,�k�k��,0.6,��
2023/11/01,02:50,0.519,0.788,0.489,0.988,0.714,0.317,0.567,0.530,�k�k��,0.9,��
2023/11/01,03:00,0.519,0.789,0.491,0.991,0.714,0.316,0.569,0.529,�k�k��,1.4,��
2023/11/01,03:10,0.520,0.788,0.490,0.991,0.715,0.317,0.569,0.530,�k�k��,1.4,��
2023/11/01,03:20,0.521,0.789,0.490,0.988,0.715,0.316,0.569,0.529,�k�k��,2.0,��
2023/11/01,03:30,0.521,0.788,0.490,0.990,0.714,0.315,0.568,0.528,�k�k��,2.6,��
2023/11/01,03:40,0.521,0.789,0.490,0.991,0.713,0.317,0.570,0.529,�k�k��,3.6,��
2023/11/01,03:50,0.520,0.787,0.489,0.989,0.713,0.316,0.569,0.528,�k��,3.4,��
2023/11/01,04:00,0.519,0.788,0.488,0.989,0.713,0.317,0.568,0.530,�k��,3.7,��
2023/11/01,04:10,0.519,0.790,0.489,0.991,0.714,0.316,0.568,0.528,���k��,2.5,��
2023/11/01,04:20,0.520,0.788,0.490,0.990,0.713,0.316,0.569,0.529,�k��,3.2,��
2023/11/01,04:30,0.521,0.787,0.490,0.990,0.712,0.316,0.568,0.529,�k��,3.7,��
2023/11/01,04:40,0.521,0.787,0.488,0.988,0.714,0.317,0.567,0.528,�k��,4.2,��
2023/11/01,04:50,0.520,0.787,0.489,0.988,0.715,0.315,0.570,0.529,�k��,4.9,��
2023/11/01,05:00,0.521,0.788,0.492,0.989,0.716,0.318,0.568,0.528,�k��,4.7,��
2023/11/01,05:10,0.520,0.789,0.490,0.990,0.713,0.314,0.569,0.528,�k��,5.6,��
2023/11/01,05:20,0.520,0.787,0.489,0.990,0.712,0.316,0.567,0.529,�k�k��,4.6,��
2023/11/01,05:30,0.519,0.788,0.489,0.989,0.714,0.316,0.568,0.529,�k��,2.6,��
2023/11/01,05:40,0.519,0.788,0.488,0.990,0.713,0.316,0.567,0.529,���k��,1.7,��
2023/11/01,05:50,0.521,0.788,0.489,0.989,0.711,0.315,0.568,0.530,��쐼,0.9,��
2023/11/01,06:00,0.520,0.786,0.489,0.991,0.713,0.315,0.569,0.528,�쐼,0.8,��
2023/11/01,06:10,0.518,0.788,0.489,0.991,0.714,0.315,0.568,0.530,��쐼,1.2,��
2023/11/01,06:20,0.519,0.788,0.488,0.990,0.713,0.315,0.569,0.531,��,1.5,��
2023/11/01,06:30,0.519,0.788,0.488,0.989,0.714,0.316,0.570,0.529,�쐼,1.2,��
2023/11/01,06:40,0.520,0.789,0.489,0.990,0.715,0.316,0.569,0.528,���쐼,1.5,��
2023/11/01,06:50,0.518,0.790,0.489,0.988,0.713,0.315,0.569,0.530,���쐼,2.0,��
2023/11/01,07:00,0.520,0.788,0.488,0.989,0.714,0.316,0.568,0.529,���쐼,1.5,��
2023/11/01,07:10,0.519,0.787,0.489,0.990,0.713,0.316,0.569,0.530,��,1.9,��
2023/11/01,07:20,0.520,0.786,0.489,0.991,0.713,0.316,0.571,0.529,��,1.5,��
2023/11/01,07:30,0.519,0.788,0.489,0.990,0.713,0.315,0.569,0.529,��,1.7,��
2023/11/01,07:40,0.519,0.788,0.489,0.989,0.713,0.316,0.570,0.530,���쐼,1.2,��
2023/11/01,07:50,0.520,0.789,0.490,0.990,0.713,0.317,0.571,0.529,��,1.1,��
2023/11/01,08:00,0.519,0.790,0.490,0.991,0.713,0.316,0.570,0.528,��,0.6,��
2023/11/01,08:10,0.520,0.789,0.491,0.989,0.714,0.316,0.569,0.529,���쐼,1.2,��
2023/11/01,08:20,0.521,0.787,0.490,0.991,0.712,0.316,0.570,0.530,��,2.6,��
2023/11/01,08:30,0.520,0.787,0.490,0.991,0.714,0.317,0.569,0.531,��,2.2,��
2023/11/01,08:40,0.521,0.786,0.490,0.990,0.713,0.316,0.569,0.530,���k��,2.3,��
2023/11/01,08:50,0.518,0.787,0.491,0.991,0.714,0.317,0.568,0.531,��,2.0,��
2023/11/01,09:00,0.519,0.786,0.492,0.992,0.713,0.317,0.568,0.531,���k��,1.7,��
2023/11/01,09:10,0.519,0.786,0.490,0.989,0.713,0.317,0.569,0.531,�k��,2.0,��
2023/11/01,09:20,0.520,0.788,0.491,0.992,0.715,0.317,0.569,0.531,���k��,2.2,��
2023/11/01,09:30,0.519,0.787,0.490,0.992,0.714,0.317,0.569,0.531,�k��,2.2,��
2023/11/01,09:40,0.521,0.787,0.490,0.991,0.714,0.314,0.570,0.530,���k��,0.9,��
2023/11/01,09:50,0.520,0.786,0.491,0.990,0.712,0.315,0.568,0.530,�k�k��,2.0,��
2023/11/01,10:00,0.521,0.787,0.489,0.989,0.713,0.313,0.569,0.531,�k�k��,2.5,��
2023/11/01,10:10,0.521,0.787,0.491,0.991,0.713,0.315,0.568,0.530,�k�k��,2.9,��
2023/11/01,10:20,0.522,0.787,0.490,0.993,0.715,0.315,0.568,0.530,�k,2.6,��
2023/11/01,10:30,0.519,0.789,0.489,0.990,0.714,0.315,0.570,0.530,�k,2.6,��
2023/11/01,10:40,0.521,0.785,0.490,0.992,0.714,0.318,0.570,0.531,�k,1.5,��
2023/11/01,10:50,0.521,0.789,0.489,0.993,0.717,0.316,0.570,0.531,�k�k��,2.0,��
2023/11/01,11:00,0.521,0.789,0.490,0.992,0.716,0.317,0.570,0.529,���k��,3.0,��
2023/11/01,11:10,0.521,0.789,0.488,0.993,0.716,0.316,0.570,0.530,��,2.8,��
2023/11/01,11:20,0.520,0.789,0.491,0.992,0.715,0.316,0.569,0.529,���쓌,3.6,��
2023/11/01,11:30,0.522,0.789,0.490,0.992,0.716,0.316,0.570,0.530,���쓌,4.1,��
2023/11/01,11:40,0.523,0.789,0.492,0.991,0.717,0.316,0.570,0.529,�쓌,3.4,��
2023/11/01,11:50,0.521,0.790,0.491,0.992,0.716,0.316,0.570,0.529,�쓌,3.0,��
2023/11/01,12:00,0.520,0.792,0.492,0.995,0.716,0.315,0.569,0.529,��쓌,3.8,��
2023/11/01,12:10,0.522,0.788,0.490,0.992,0.717,0.317,0.572,0.530,��쓌,4.0,��
2023/11/01,12:20,0.521,0.791,0.490,0.994,0.718,0.316,0.570,0.528,��쓌,4.5,��
2023/11/01,12:30,0.521,0.790,0.491,0.995,0.716,0.315,0.571,0.530,��쓌,4.3,��
2023/11/01,12:40,0.523,0.790,0.489,0.993,0.717,0.316,0.569,0.530,��쓌,5.5,��
2023/11/01,12:50,0.523,0.791,0.491,0.993,0.717,0.316,0.570,0.529,��쓌,5.7,��
2023/11/01,13:00,0.522,0.791,0.491,0.994,0.715,0.316,0.570,0.529,��쓌,5.3,��
2023/11/01,13:10,0.522,0.790,0.492,0.992,0.718,0.314,0.569,0.528,��쓌,5.5,��
2023/11/01,13:20,0.524,0.790,0.491,0.993,0.718,0.317,0.571,0.529,��쓌,5.6,��
2023/11/01,13:30,0.522,0.790,0.491,0.997,0.718,0.315,0.570,0.531,��쓌,5.4,��
2023/11/01,13:40,0.522,0.792,0.492,0.994,0.717,0.316,0.570,0.531,��쓌,6.3,��
2023/11/01,13:50,0.522,0.790,0.491,0.996,0.717,0.317,0.571,0.529,��쓌,5.7,��
2023/11/01,14:00,0.522,0.790,0.491,0.996,0.718,0.316,0.569,0.529,��쓌,5.8,��
2023/11/01,14:10,0.522,0.791,0.490,0.993,0.718,0.315,0.571,0.529,��쓌,6.4,��
2023/11/01,14:20,0.521,0.790,0.492,0.993,0.718,0.317,0.571,0.528,��쓌,6.3,��
2023/11/01,14:30,0.523,0.793,0.491,0.993,0.718,0.315,0.570,0.529,��쓌,5.9,��
2023/11/01,14:40,0.522,0.792,0.490,0.995,0.717,0.315,0.570,0.530,��쓌,7.2,��
2023/11/01,14:50,0.521,0.788,0.491,0.994,0.719,0.314,0.570,0.529,��쓌,7.5,��
2023/11/01,15:00,0.522,0.791,0.491,0.993,0.718,0.315,0.570,0.528,��,6.8,��
2023/11/01,15:10,0.521,0.791,0.491,0.992,0.720,0.316,0.570,0.529,��,7.9,��
2023/11/01,15:20,0.521,0.790,0.491,0.992,0.717,0.316,0.569,0.529,��쓌,8.0,��
2023/11/01,15:30,0.520,0.789,0.491,0.992,0.717,0.314,0.570,0.528,��,8.0,��
2023/11/01,15:40,0.523,0.789,0.492,0.990,0.716,0.314,0.570,0.529,��쓌,8.1,��
2023/11/01,15:50,0.522,0.792,0.491,0.991,0.718,0.317,0.567,0.529,��쓌,7.8,��
2023/11/01,16:00,0.521,0.792,0.491,0.990,0.719,0.317,0.570,0.528,��,7.9,��
2023/11/01,16:10,0.522,0.787,0.491,0.992,0.717,0.318,0.571,0.529,��,7.5,��
2023/11/01,16:20,0.522,0.788,0.490,0.989,0.718,0.317,0.573,0.529,��,6.9,��
2023/11/01,16:30,0.521,0.789,0.490,0.991,0.716,0.317,0.572,0.529,��,7.1,��
2023/11/01,16:40,0.523,0.792,0.491,0.995,0.717,0.318,0.571,0.530,��,7.2,��
2023/11/01,16:50,0.522,0.792,0.490,0.995,0.717,0.317,0.571,0.530,��,7.2,��
2023/11/01,17:00,0.521,0.794,0.492,0.996,0.718,0.318,0.572,0.531,��쐼,8.1,��
2023/11/01,17:10,0.522,0.795,0.492,0.995,0.719,0.318,0.574,0.532,��쐼,8.6,��
2023/11/01,17:20,0.523,0.795,0.494,0.995,0.718,0.318,0.571,0.531,��쐼,7.3,��
2023/11/01,17:30,0.521,0.794,0.494,0.993,0.722,0.318,0.572,0.531,��쐼,7.0,��
2023/11/01,17:40,0.523,0.794,0.492,0.996,0.719,0.319,0.570,0.531,��쐼,6.1,��
2023/11/01,17:50,0.522,0.796,0.495,0.995,0.721,0.319,0.572,0.530,��쐼,5.1,��
2023/11/01,18:00,0.523,0.796,0.494,0.995,0.720,0.318,0.572,0.530,��쐼,5.5,��
2023/11/01,18:10,0.524,0.796,0.494,0.997,0.721,0.320,0.571,0.531,��쐼,4.7,��
2023/11/01,18:20,0.524,0.795,0.493,0.996,0.721,0.318,0.573,0.531,��쐼,5.0,��
2023/11/01,18:30,0.523,0.793,0.494,0.996,0.722,0.317,0.572,0.531,��쐼,4.9,��
2023/11/01,18:40,0.523,0.794,0.494,0.994,0.721,0.318,0.572,0.531,��쐼,4.1,��
2023/11/01,18:50,0.525,0.795,0.494,0.993,0.723,0.318,0.573,0.531,��쐼,3.9,��
2023/11/01,19:00,0.525,0.795,0.493,0.992,0.721,0.317,0.574,0.530,��쐼,3.4,��
2023/11/01,19:10,0.526,0.795,0.495,0.994,0.721,0.317,0.572,0.530,��쐼,3.7,��
2023/11/01,19:20,0.524,0.795,0.493,0.996,0.720,0.317,0.572,0.530,��쐼,5.3,��
2023/11/01,19:30,0.524,0.796,0.493,0.995,0.722,0.319,0.572,0.531,��쐼,5.3,��
2023/11/01,19:40,0.524,0.796,0.493,0.995,0.720,0.318,0.573,0.530,��쐼,6.0,��
2023/11/01,19:50,0.525,0.795,0.493,0.995,0.720,0.318,0.572,0.531,��쐼,6.3,��
2023/11/01,20:00,0.523,0.793,0.492,0.996,0.721,0.318,0.573,0.531,��쐼,6.1,��
2023/11/01,20:10,0.522,0.794,0.493,0.995,0.719,0.318,0.574,0.531,��쐼,6.3,��
2023/11/01,20:20,0.525,0.793,0.493,0.993,0.722,0.318,0.571,0.531,��쐼,6.9,��
2023/11/01,20:30,0.525,0.795,0.493,0.995,0.721,0.318,0.572,0.530,��쐼,6.4,��
2023/11/01,20:40,0.523,0.795,0.493,0.997,0.720,0.317,0.572,0.530,��쐼,6.2,��
2023/11/01,20:50,0.525,0.795,0.493,0.997,0.719,0.319,0.572,0.530,��쐼,7.3,��
2023/11/01,21:00,0.524,0.793,0.494,0.994,0.719,0.318,0.574,0.531,��쐼,6.7,��
2023/11/01,21:10,0.524,0.793,0.493,0.993,0.721,0.318,0.573,0.530,��쐼,5.6,��
2023/11/01,21:20,0.525,0.793,0.494,0.992,0.721,0.318,0.573,0.531,��쐼,4.9,��
2023/11/01,21:30,0.524,0.794,0.492,0.995,0.721,0.319,0.572,0.529,��쐼,3.8,��
2023/11/01,21:40,0.523,0.794,0.492,0.993,0.719,0.319,0.572,0.531,��,3.1,��
2023/11/01,21:50,0.525,0.793,0.492,0.995,0.718,0.318,0.572,0.530,��,1.7,��
2023/11/01,22:00,0.525,0.793,0.493,0.994,0.719,0.318,0.572,0.530,��,3.5,��
2023/11/01,22:10,0.524,0.796,0.493,0.995,0.719,0.318,0.573,0.533,�쐼,3.0,��
2023/11/01,22:20,0.525,0.795,0.492,0.995,0.720,0.318,0.570,0.531,�쐼,4.7,��
2023/11/01,22:30,0.524,0.795,0.495,0.995,0.721,0.319,0.572,0.529,��쐼,5.2,��
2023/11/01,22:40,0.524,0.794,0.493,0.993,0.719,0.318,0.571,0.531,��쐼,6.4,��
2023/11/01,22:50,0.525,0.794,0.493,0.996,0.722,0.318,0.573,0.532,�쐼,4.9,��
2023/11/01,23:00,0.524,0.793,0.493,0.996,0.720,0.318,0.572,0.530,�쐼,4.9,��
2023/11/01,23:10,0.524,0.794,0.493,0.997,0.721,0.319,0.572,0.531,��쐼,5.6,��
2023/11/01,23:20,0.524,0.794,0.494,0.995,0.721,0.319,0.571,0.530,��쐼,4.6,��
2023/11/01,23:30,0.524,0.794,0.493,0.994,0.721,0.318,0.571,0.531,��,5.0,��
2023/11/01,23:40,0.525,0.794,0.493,0.995,0.720,0.319,0.573,0.532,��,6.8,��
2023/11/01,23:50,0.525,0.794,0.493,0.996,0.719,0.318,0.571,0.530,��,6.9,��
